Theta_e
348 347 342 340 338 338 337 336 333 332 331 329 328 327 325 324 324 322 320 321 323 325 328 332 335 336 336 336 335 335 335 334 332 329 328 327 321 316 315 314 314 315 317 316 312 311 310 310 310 310 310 310 310 310 309 309 310 310 314 317 317 316 315 315 315 323 329 329 329 330 330 330 328 328 328 329 328 329 331 334 336 337 337 336 336
347 346 342 340 339 337 337 336 333 331 330 329 329 327 327 327 326 322 320 322 325 328 328 330 333 335 336 335 335 334 333 332 330 326 325 323 319 316 315 314 316 318 318 314 311 310 309 310 310 310 310 310 310 310 310 310 311 314 317 320 319 318 317 315 313 317 325 328 329 330 330 330 329 328 327 327 328 329 332 335 336 337 337 336 336
346 345 341 340 339 338 337 336 333 331 330 329 329 329 329 329 326 323 320 320 324 328 328 328 329 331 333 333 333 332 330 330 327 324 322 319 317 317 315 314 320 327 327 317 311 311 310 310 310 311 311 311 312 312 312 311 313 317 320 321 321 321 320 318 314 313 319 325 328 329 329 329 329 329 327 328 328 329 333 335 336 336 337 336 336
345 343 341 341 339 338 337 336 333 331 329 329 329 329 329 329 327 324 321 319 320 323 327 327 326 326 327 328 328 328 327 327 326 323 321 318 316 316 315 315 320 331 332 320 311 310 310 310 313 315 314 315 317 318 317 315 316 322 323 321 323 324 323 321 316 313 313 318 325 327 328 329 330 329 328 328 329 330 333 335 336 336 336 336 336
344 341 341 340 338 338 337 336 334 331 329 329 329 329 330 330 329 325 323 321 319 319 322 324 324 323 322 323 324 325 325 326 324 322 321 317 317 317 315 315 317 327 328 316 310 315 317 316 316 319 320 322 323 323 323 320 320 326 327 323 324 325 323 321 317 314 311 313 319 324 326 329 330 330 330 329 329 330 332 334 336 336 336 337 336
342 340 340 339 339 338 337 337 334 332 330 329 329 330 330 330 330 328 325 322 321 318 317 319 321 321 321 324 329 329 329 330 330 329 327 320 318 318 315 314 314 319 321 314 316 321 324 321 319 322 323 325 326 328 326 323 322 325 325 325 326 324 323 322 317 314 311 311 315 319 323 326 329 330 331 330 328 329 331 333 334 335 335 336 335
339 338 339 338 338 337 337 337 334 333 330 329 329 329 330 331 331 330 328 323 321 319 316 316 317 319 319 323 330 333 334 335 336 335 331 325 322 320 315 315 314 315 317 316 320 324 324 321 321 323 323 324 326 328 325 323 323 323 323 324 325 322 323 323 317 313 310 310 312 315 317 321 325 327 329 328 327 327 329 330 333 334 334 334 334
336 336 336 336 337 337 337 337 335 334 331 330 329 329 330 331 331 331 330 325 321 319 316 316 317 318 318 320 325 331 335 336 337 335 332 329 327 322 316 314 314 314 315 315 321 324 325 325 324 323 322 324 325 325 323 323 323 323 324 324 322 322 324 321 316 313 309 309 311 313 313 315 319 323 325 326 325 325 326 327 330 332 333 333 332
333 333 334 335 336 336 337 337 335 334 333 331 330 330 330 331 331 332 330 326 321 319 317 316 317 319 322 323 324 327 331 333 333 332 330 330 330 326 318 315 314 313 314 314 318 322 325 326 325 322 323 324 324 323 323 324 323 323 324 324 322 323 324 319 315 312 309 308 309 311 312 313 314 317 321 322 320 321 322 323 326 328 329 329 328
331 332 334 335 336 336 337 337 336 335 333 332 331 330 330 330 331 332 331 325 320 319 317 318 317 320 325 328 329 328 327 329 330 331 330 331 331 329 323 318 315 313 313 314 317 321 322 323 323 322 323 324 323 323 323 323 324 325 325 324 323 325 323 319 317 313 310 308 308 310 311 313 313 315 319 319 316 316 318 318 319 322 322 321 320
330 332 334 335 336 336 337 337 336 335 334 333 332 331 330 331 331 332 332 323 318 317 317 321 320 322 326 329 331 329 327 328 329 329 329 329 328 326 324 320 317 313 313 314 318 321 320 322 323 323 324 324 324 321 321 324 325 326 325 324 325 326 324 321 320 316 313 310 308 308 309 311 311 314 317 319 316 313 313 314 315 315 316 315 314
330 332 334 335 336 336 337 336 336 336 335 334 333 332 331 331 331 332 331 321 317 317 318 324 325 326 328 329 330 329 330 330 330 330 328 327 323 322 320 318 318 315 315 316 317 320 322 325 326 326 326 324 323 321 320 324 326 327 326 325 325 326 324 324 322 318 315 312 309 308 308 310 311 313 316 318 316 312 311 312 312 312 312 312 313
330 332 334 335 335 336 336 336 337 336 336 334 333 333 332 332 331 333 331 320 316 318 321 325 326 328 329 330 330 331 332 331 331 330 327 324 320 319 317 317 318 316 318 320 320 322 324 327 328 327 326 324 323 321 320 322 325 327 326 325 326 325 325 325 323 320 317 313 311 308 307 309 310 311 312 313 313 312 311 311 311 311 311 311 312
330 331 333 334 335 336 336 337 337 336 336 335 334 333 333 333 332 334 328 317 317 320 323 325 326 329 329 330 331 332 331 329 328 325 321 319 317 317 315 317 318 317 319 322 325 326 327 328 328 327 326 325 324 323 322 322 324 326 326 326 326 326 325 326 324 322 319 315 312 310 308 308 309 310 310 310 310 311 311 311 310 310 310 310 310
330 330 331 333 335 337 337 337 336 336 336 336 336 334 334 333 333 333 323 317 319 321 324 326 327 330 330 329 329 328 326 324 323 321 321 322 320 319 316 317 318 317 317 320 325 328 329 330 329 328 327 326 327 326 325 324 324 325 325 326 326 327 327 326 325 323 320 316 313 311 309 308 308 309 309 310 309 309 309 309 308 308 308 308 308
329 329 330 332 334 336 337 336 336 336 336 336 336 335 334 333 333 329 319 318 321 322 326 326 326 329 328 326 324 323 323 322 323 324 325 326 326 325 321 318 318 317 316 317 322 328 330 331 330 329 328 327 328 329 327 326 327 325 324 325 326 327 328 328 326 324 321 317 315 312 310 309 308 308 309 309 309 309 308 308 308 308 307 307 308
329 328 329 331 332 334 336 336 336 336 337 337 336 336 334 333 333 324 317 322 324 324 328 328 327 327 325 324 323 325 327 328 328 327 326 327 329 329 326 322 320 318 317 317 320 326 329 330 329 329 328 328 328 330 328 327 328 326 324 325 325 327 327 328 326 323 320 317 316 314 310 310 308 308 308 308 308 309 309 308 308 308 308 308 308
328 327 327 328 330 332 334 335 337 337 337 337 337 336 333 334 330 319 318 325 326 328 330 330 330 329 329 328 328 331 332 332 331 328 326 328 329 328 328 324 321 319 318 317 318 324 327 327 327 327 327 327 327 329 329 328 329 327 325 324 325 326 327 328 326 323 320 318 317 315 312 310 310 309 308 308 308 308 308 308 308 308 308 308 308
327 326 325 326 327 330 333 335 337 337 337 336 337 335 334 333 325 317 322 327 328 330 331 331 332 332 333 333 333 333 334 333 332 329 327 329 328 328 328 323 320 320 319 318 317 321 325 326 325 326 326 326 326 328 330 328 329 328 326 325 325 326 326 327 325 323 321 318 317 316 314 311 310 310 309 308 308 308 308 308 308 308 308 308 308
326 324 323 324 326 330 333 335 337 337 336 336 336 335 334 331 321 318 325 328 330 331 331 331 332 333 334 334 334 334 334 333 332 329 328 329 329 329 327 322 320 320 319 319 317 319 323 326 326 326 327 327 327 329 331 329 329 329 327 326 326 327 327 326 325 324 322 319 317 317 316 313 311 310 310 309 308 307 307 307 308 308 308 308 308
327 325 325 325 327 329 332 335 336 336 336 336 336 334 333 327 319 322 327 329 330 331 331 331 332 334 335 335 335 334 334 333 331 329 328 329 329 329 326 322 322 322 321 319 318 318 320 325 326 326 327 328 327 330 331 330 330 330 328 328 328 328 328 327 327 326 324 321 319 317 316 315 313 311 310 310 308 308 307 307 307 307 308 308 308
332 331 329 327 328 330 333 335 335 335 336 336 335 333 331 323 319 325 330 331 332 331 331 331 333 334 334 335 334 334 334 332 331 329 328 329 329 327 324 323 324 324 323 321 320 318 318 321 323 324 325 327 327 330 332 331 331 331 329 329 329 329 328 328 328 327 325 322 322 320 317 316 315 313 311 310 309 308 307 307 306 307 307 308 308
332 332 331 328 329 331 334 335 334 334 335 335 333 333 329 320 321 328 331 332 332 331 329 330 332 333 333 334 333 333 332 331 330 329 327 327 326 325 324 323 323 322 323 322 321 320 318 318 319 320 322 326 328 330 332 331 331 331 331 330 330 329 329 328 328 328 326 324 325 323 320 317 316 315 313 311 309 309 308 307 306 306 306 306 307
331 330 330 329 331 333 334 334 333 333 333 333 332 331 326 320 324 329 331 332 332 331 328 328 331 332 332 331 331 330 329 330 329 329 327 326 325 324 323 322 322 322 321 321 321 321 320 319 317 317 318 323 329 330 331 332 331 331 331 331 330 329 328 327 327 328 327 326 326 325 322 318 317 317 316 313 310 309 308 308 307 306 306 306 306
331 330 330 330 331 333 334 332 330 331 331 330 330 328 324 323 327 329 331 332 331 329 327 327 329 330 330 329 328 327 328 328 328 328 327 325 324 323 322 322 321 321 321 320 320 320 321 320 319 317 316 319 326 327 328 331 331 331 331 331 330 329 328 327 328 328 328 328 327 324 321 319 318 317 318 315 311 309 308 308 307 306 306 305 305
332 332 331 331 332 333 333 332 329 330 329 328 328 326 323 325 328 329 331 331 331 328 326 326 327 327 327 327 327 327 328 328 327 327 326 324 323 322 322 322 321 321 321 320 320 320 320 320 319 319 317 316 320 323 326 329 331 332 332 331 330 329 328 328 328 328 328 329 326 323 320 319 317 320 323 319 312 309 309 308 307 307 306 306 305
333 333 332 333 333 332 332 332 329 329 328 328 328 324 324 327 328 330 331 331 330 327 325 326 326 326 325 326 326 327 328 328 327 328 326 323 323 323 323 322 322 322 322 320 320 320 320 319 319 319 318 316 317 321 324 328 331 332 332 331 330 330 329 329 329 329 329 328 326 323 321 319 317 320 324 323 318 312 309 309 308 307 307 306 306
334 334 334 333 332 332 332 330 330 329 327 328 327 324 325 328 329 330 331 331 330 327 326 326 326 326 325 326 327 327 328 328 328 328 326 324 324 326 326 325 325 326 325 324 323 322 321 320 319 319 319 318 318 321 324 327 331 332 331 331 330 330 330 330 330 330 330 329 326 324 321 319 317 318 322 325 323 318 313 310 309 308 307 306 306
335 334 334 333 332 332 331 329 329 329 327 328 326 324 326 328 329 331 331 331 329 327 325 325 326 326 326 327 326 325 327 328 328 328 327 325 326 328 328 327 326 327 327 327 327 326 324 323 322 321 320 321 321 323 324 327 331 332 331 331 330 330 329 330 330 330 330 329 327 325 322 320 318 318 322 325 325 321 316 311 309 308 307 307 306
335 335 334 334 334 333 332 330 328 327 326 326 325 325 327 328 329 331 331 331 329 326 325 325 326 327 326 326 325 325 327 328 328 328 327 326 327 328 329 328 327 326 326 327 327 327 327 325 325 324 324 323 324 325 325 327 329 331 331 331 330 329 328 329 330 330 330 329 328 326 323 320 318 317 321 325 326 323 320 314 310 309 308 307 307
335 335 335 334 335 333 333 331 328 327 326 325 325 326 328 329 330 331 331 331 328 325 324 325 326 327 326 325 324 326 328 328 328 328 326 326 326 327 327 327 327 326 326 326 326 326 327 327 326 326 326 326 326 326 326 327 327 328 328 329 328 328 328 328 330 331 330 329 328 326 323 321 319 317 319 323 324 323 322 319 312 309 309 307 307
335 335 335 335 335 334 333 330 327 328 328 326 326 328 329 331 331 332 332 330 327 325 324 325 326 326 325 325 324 326 326 327 327 327 326 325 325 327 327 327 326 326 326 326 326 326 327 328 327 326 326 327 327 327 327 328 328 328 327 327 328 328 329 330 330 331 330 327 326 324 323 322 319 317 318 320 321 320 322 322 317 312 310 307 307
336 336 335 335 335 334 332 329 328 329 330 330 329 330 331 332 332 332 332 330 327 325 326 327 327 326 326 326 325 325 325 326 326 326 326 325 325 327 327 327 327 326 326 326 326 326 325 326 327 327 326 326 327 327 327 327 328 328 328 327 328 329 329 329 330 330 329 327 324 323 322 321 318 316 317 318 318 318 318 322 323 319 311 306 307
337 336 335 335 335 334 331 329 329 330 332 332 332 332 332 333 333 332 331 329 326 325 327 328 327 327 327 327 326 326 325 325 325 325 326 326 325 326 326 327 327 326 326 326 326 326 325 324 325 327 326 326 327 327 327 327 327 328 327 327 327 328 328 329 329 328 327 326 324 324 322 320 317 317 318 319 319 317 316 322 325 321 312 310 312
336 336 335 335 334 333 331 330 331 332 333 334 334 334 333 333 333 332 330 328 326 325 327 327 327 328 329 329 328 327 327 327 326 325 325 326 327 327 326 326 326 326 325 325 326 326 325 325 325 327 326 327 327 327 327 327 327 327 327 327 326 327 328 329 329 327 327 326 324 324 322 320 320 319 319 321 321 318 316 319 322 318 315 316 318
335 334 334 335 335 334 333 332 333 333 334 334 335 334 334 333 332 331 329 327 326 326 327 327 327 328 329 329 329 328 328 327 326 325 325 326 327 328 327 327 326 326 325 325 325 325 325 325 325 326 327 327 327 328 327 327 327 327 327 327 326 328 329 328 328 328 327 326 325 324 323 322 322 321 321 322 323 320 317 316 316 317 318 321 322
335 333 334 335 335 336 335 335 335 334 334 334 335 334 333 332 331 330 328 326 326 326 327 327 328 328 328 328 328 328 327 326 325 326 327 328 328 328 328 327 327 326 325 325 326 325 326 326 325 325 326 327 327 328 327 326 326 326 326 326 326 328 328 327 328 328 327 326 325 325 324 323 322 322 323 324 324 324 321 319 318 319 321 324 325
335 334 334 335 336 337 337 336 336 335 335 334 335 334 332 332 331 330 328 326 326 326 326 327 328 328 328 328 328 327 326 326 326 327 328 329 329 329 329 328 327 327 326 326 326 326 325 325 325 325 326 328 328 327 327 326 326 326 326 326 326 327 327 327 328 328 326 326 327 325 324 324 323 323 325 325 326 326 325 325 325 325 325 326 327
329 329 331 333 334 336 337 336 336 335 335 335 334 333 332 331 330 329 328 327 327 327 326 327 328 329 328 327 326 326 326 327 328 328 328 327 326 327 328 328 328 328 327 327 326 326 326 324 324 325 326 327 327 327 327 326 326 327 326 326 326 326 326 327 329 328 326 326 326 325 325 325 325 325 326 327 327 327 327 327 327 326 326 327 327
323 324 326 330 331 334 336 335 335 335 334 334 334 333 332 331 329 328 327 327 327 327 327 328 329 328 327 326 326 327 327 327 326 325 325 324 324 326 327 327 327 328 327 327 326 326 326 324 324 326 326 327 327 327 327 326 327 326 326 326 325 326 326 327 329 328 326 325 325 326 326 326 326 326 327 327 327 327 327 326 326 326 326 326 326
321 321 324 329 331 332 334 334 334 334 333 333 333 332 332 330 328 328 328 328 328 328 328 328 328 327 326 327 327 327 325 325 324 324 324 324 325 326 326 326 326 327 326 325 325 325 326 324 323 326 326 326 327 327 326 326 326 326 326 326 326 326 326 327 328 328 326 325 325 326 327 327 327 327 327 326 326 326 326 325 325 325 326 326 325
322 324 329 331 333 333 333 333 333 333 333 332 332 332 330 328 327 328 328 328 329 328 328 327 327 327 327 327 326 325 324 324 324 325 325 325 326 326 326 326 326 326 325 324 324 325 326 324 323 325 326 326 327 326 326 325 326 326 326 326 326 327 327 328 328 327 327 327 326 326 327 327 327 327 327 326 326 326 326 325 325 326 326 325 324
321 325 331 332 333 333 333 332 332 332 332 331 331 331 329 328 327 327 328 328 328 327 327 327 327 326 326 326 326 325 324 325 325 325 325 326 327 327 326 326 325 325 324 323 324 325 325 323 323 324 325 326 326 326 325 324 325 326 326 326 327 327 327 328 327 327 327 327 327 326 326 327 326 326 326 326 326 326 326 325 325 326 325 324 324
320 323 330 333 334 333 333 332 331 331 330 330 330 329 329 329 329 328 329 328 327 327 327 326 325 325 325 326 325 325 325 326 326 325 325 326 326 326 326 325 324 323 322 322 323 323 323 322 322 323 324 324 325 325 325 324 324 326 326 326 326 327 327 327 326 326 326 326 326 325 324 326 326 326 326 326 326 326 326 325 325 325 325 325 323
322 323 329 334 334 333 332 332 331 330 329 329 329 329 329 330 329 329 328 327 328 326 324 323 323 324 324 325 325 326 326 326 325 325 325 325 325 325 326 326 325 324 322 323 324 323 322 322 323 323 323 323 323 323 324 324 325 326 326 325 325 326 326 325 325 325 325 325 325 324 324 325 325 325 326 326 326 326 325 325 324 325 324 322 319
324 325 331 334 334 333 333 332 331 330 330 329 329 329 329 329 328 327 326 327 327 324 322 322 322 322 322 322 323 324 325 324 324 325 325 325 325 325 325 326 326 325 324 323 324 323 323 323 323 322 322 322 323 322 323 325 326 326 326 325 324 325 325 324 324 325 325 326 326 325 325 325 325 326 325 325 325 325 325 324 324 324 322 318 316
326 328 333 334 333 334 333 332 331 330 330 329 329 330 329 328 327 325 324 325 324 322 323 323 323 322 321 321 322 323 323 323 323 323 324 324 325 324 325 326 326 326 325 325 324 324 324 323 323 323 322 322 322 322 323 325 326 326 326 326 324 325 325 324 324 325 325 326 326 326 325 325 325 324 323 323 323 323 323 323 323 322 318 315 315
327 330 334 334 332 333 333 332 331 331 330 329 329 329 328 326 324 324 324 324 323 322 323 323 323 322 321 322 323 322 322 321 321 320 318 319 322 323 324 325 326 325 326 325 325 325 325 324 324 323 323 322 323 323 323 324 326 326 326 326 325 325 325 325 324 324 325 326 326 326 325 324 323 321 319 318 318 318 319 320 320 317 314 314 315
330 331 333 334 333 332 332 332 331 331 330 329 328 328 326 323 322 323 324 324 324 323 322 322 322 321 321 323 323 322 321 320 320 318 314 313 317 320 321 323 325 325 326 325 325 325 325 325 325 324 323 323 324 323 323 324 325 326 327 326 326 326 326 325 325 324 324 325 325 325 324 322 320 318 316 315 315 316 316 316 316 315 314 314 314
331 332 333 334 333 332 332 331 331 332 330 328 328 327 324 322 322 324 323 323 324 323 322 323 321 320 321 322 323 322 322 321 320 318 315 313 315 317 318 320 323 323 324 325 325 325 325 325 325 324 324 324 324 324 323 324 325 326 327 326 326 326 326 325 325 325 324 324 324 325 323 321 319 317 315 314 314 314 315 314 314 314 314 313 312
331 332 333 333 333 332 331 332 332 332 330 328 328 326 323 323 324 323 322 322 322 321 321 321 319 319 320 321 322 321 321 321 320 319 317 315 315 316 317 318 320 320 321 323 324 324 325 326 325 325 324 325 325 324 324 324 324 326 326 326 326 326 326 325 325 325 324 324 324 324 323 320 319 317 314 312 311 311 312 312 313 312 310 309 308
Wind_Speed
30 30 29 27 24 24 24 24 23 21 20 19 19 18 18 16 16 15 15 16 17 18 19 20 21 21 20 19 18 16 15 14 13 12 11 10 9 10 10 10 11 11 12 14 14 14 15 15 15 16 16 16 16 17 18 19 22 24 26 28 28 28 27 26 23 19 19 20 19 19 19 19 20 19 18 18 18 17 17 17 17 19 20 21 21
33 31 30 28 25 25 25 25 23 21 21 20 20 19 18 16 16 15 15 16 16 18 19 20 21 21 20 19 18 16 15 14 13 12 12 10 10 10 11 10 11 12 13 15 15 15 16 16 15 15 15 15 15 16 16 19 23 24 26 27 28 29 28 28 26 21 20 22 20 19 19 18 20 20 18 18 17 16 17 17 17 18 20 21 21
33 32 31 30 26 25 25 25 23 22 21 20 20 19 18 16 16 16 15 15 16 18 19 20 20 21 21 20 18 17 16 14 13 13 12 10 11 11 12 12 13 15 15 16 15 16 16 16 16 15 15 14 14 14 15 18 23 24 25 26 27 28 28 27 27 23 20 20 21 21 20 19 19 19 19 17 16 16 16 17 17 18 20 20 21
32 32 32 30 27 25 25 25 23 22 21 20 20 19 18 16 15 15 15 15 15 17 18 19 19 20 20 19 19 18 16 15 14 13 12 11 12 13 13 13 15 16 16 16 16 17 17 16 16 16 15 14 14 13 14 17 20 21 22 24 25 26 27 27 26 25 21 17 20 23 22 20 19 19 18 16 15 15 15 17 17 18 19 20 20
32 32 32 31 28 26 25 25 24 22 21 20 20 19 18 16 15 14 15 14 14 15 17 19 19 20 20 20 19 18 17 15 14 13 13 11 12 13 14 14 15 16 15 17 18 17 17 16 16 16 15 15 14 14 15 16 17 19 19 20 23 25 26 26 25 24 22 19 18 21 22 21 20 18 17 15 14 14 14 15 16 16 17 18 18
30 31 32 31 28 27 26 26 25 23 22 21 20 19 18 16 15 14 13 13 13 13 15 18 19 19 20 21 19 18 17 15 14 13 13 12 13 14 15 14 14 15 16 18 18 17 17 17 16 16 15 14 14 14 16 17 18 19 19 19 21 23 25 25 25 24 22 20 16 18 20 20 19 17 16 15 14 13 13 14 14 14 15 16 16
29 30 31 30 29 27 27 27 25 24 22 21 19 18 17 16 14 13 12 12 12 12 13 16 18 18 19 21 20 18 16 16 15 14 13 12 13 13 15 15 14 15 17 19 18 17 17 16 16 15 14 13 13 14 17 19 20 20 20 21 21 23 25 25 25 23 21 20 18 15 17 19 18 15 13 12 13 13 12 13 13 12 13 13 13
28 29 30 29 28 28 28 27 26 24 22 21 19 18 17 16 14 12 11 11 11 11 12 15 17 18 19 19 20 19 18 17 16 16 15 13 13 13 14 16 15 15 18 19 18 17 17 16 15 14 13 12 12 14 18 20 20 20 20 21 22 23 24 25 25 23 21 20 19 16 14 17 17 15 12 11 12 13 13 13 12 11 11 9 8
28 28 29 28 28 28 28 27 25 24 22 21 19 18 17 16 14 12 11 10 11 11 12 15 17 18 18 18 18 19 19 18 16 16 15 14 13 12 13 15 15 16 18 18 18 17 16 16 15 14 13 12 12 13 18 19 19 19 20 21 22 23 24 24 25 23 22 21 19 17 15 16 16 15 13 12 12 14 13 12 12 10 9 8 6
27 28 28 27 28 27 28 26 25 24 23 21 19 18 17 15 14 12 10 10 11 11 13 15 17 17 18 17 16 16 18 18 16 15 14 13 12 10 11 13 13 16 18 18 18 17 16 15 15 14 12 11 11 12 16 18 18 19 19 20 21 23 24 24 24 24 23 21 19 18 17 17 16 15 14 13 13 13 12 11 10 10 8 7 6
27 27 27 27 27 27 28 26 25 24 22 21 19 18 16 16 14 12 10 10 11 12 14 15 16 17 18 17 16 15 16 17 15 13 12 12 10 9 10 11 12 15 18 18 18 17 16 16 15 14 12 11 10 11 15 17 17 18 18 19 21 22 23 23 23 23 22 21 19 19 18 19 19 18 16 15 13 13 12 10 9 9 8 6 5
27 27 26 26 27 27 27 26 25 24 22 21 19 18 16 16 14 12 10 9 12 13 15 16 16 18 18 17 16 15 15 15 14 12 11 10 9 9 9 11 12 15 18 18 18 17 17 17 15 13 11 10 9 9 13 16 16 16 17 18 19 21 21 21 21 22 22 21 20 19 18 17 18 18 17 16 15 13 12 11 9 9 8 6 6
27 27 26 26 27 27 27 26 25 23 22 21 19 17 16 15 14 12 9 9 12 14 15 16 17 17 17 17 15 15 14 13 12 11 10 10 10 10 11 14 15 17 19 19 19 19 18 17 15 13 11 10 8 8 10 14 15 14 15 17 18 19 20 20 20 21 21 21 19 17 17 17 17 18 18 17 16 15 14 12 12 11 10 9 9
27 27 26 26 27 27 27 26 25 24 23 21 19 17 16 15 13 11 9 10 12 14 15 16 16 16 16 16 15 14 13 12 11 11 11 11 12 13 14 17 18 19 21 21 21 20 19 18 16 14 12 10 8 7 7 10 13 13 14 16 16 17 18 18 19 20 20 19 18 16 16 16 17 17 17 17 17 17 16 15 15 14 13 12 13
27 27 27 27 27 28 26 26 25 23 22 20 19 18 16 15 13 10 9 11 12 14 15 16 16 16 15 15 15 14 13 13 12 13 13 13 14 14 15 17 19 20 21 22 22 22 21 19 17 15 13 11 9 7 5 7 10 12 13 14 15 15 16 17 18 18 18 18 17 16 15 16 16 17 17 17 17 17 17 16 16 16 15 15 15
26 27 27 27 27 27 26 25 24 23 22 20 19 18 16 14 12 10 11 13 13 14 15 16 15 16 16 15 15 14 14 13 14 14 15 14 14 15 15 17 18 18 20 22 23 23 22 20 19 16 14 11 9 8 6 4 8 11 11 12 13 14 14 15 16 17 17 17 16 14 14 15 14 15 16 15 16 16 16 16 16 16 15 15 15
26 27 27 26 26 26 26 25 24 23 21 19 18 17 15 14 12 11 13 13 13 14 15 15 15 15 15 15 14 14 14 14 14 14 14 14 14 14 14 16 18 18 19 22 23 23 23 21 20 17 15 12 10 8 7 4 5 10 11 10 11 12 13 13 14 15 16 16 16 14 13 13 13 13 13 14 14 14 14 15 15 15 14 14 14
26 26 26 25 26 26 26 25 24 23 21 19 18 17 15 14 12 12 14 13 13 14 15 15 15 14 14 14 14 14 14 14 14 12 12 13 13 13 12 13 16 18 18 20 22 23 23 22 20 17 15 13 11 9 8 6 4 7 9 9 10 10 11 12 13 14 15 15 15 14 12 12 12 12 12 12 12 12 12 13 13 13 13 13 13
25 25 25 25 27 26 26 25 25 23 22 20 19 17 16 15 13 14 14 13 14 14 14 14 14 14 14 15 14 14 14 14 13 11 12 13 12 12 11 11 14 17 17 18 20 23 23 22 20 18 16 14 12 11 10 8 5 6 8 8 9 9 10 11 11 12 13 14 15 14 12 11 10 11 11 11 11 11 11 11 11 11 12 11 11
25 26 26 26 26 26 26 25 25 23 22 21 19 19 17 15 14 15 14 14 14 14 14 14 14 14 14 15 15 14 14 14 12 11 11 12 12 11 10 10 13 15 16 16 18 21 23 22 21 19 18 16 14 13 11 9 7 6 6 7 8 8 9 9 10 10 11 12 13 14 13 11 9 9 10 10 10 10 9 9 9 10 10 10 10
24 25 26 27 26 26 26 25 25 23 22 22 20 19 18 17 16 16 15 14 14 13 14 15 16 15 15 15 15 15 14 13 12 10 11 11 11 10 9 10 11 12 14 15 16 18 21 22 21 20 19 17 16 14 13 10 8 6 6 6 7 8 8 9 8 9 10 11 12 13 12 11 8 8 7 8 8 8 8 8 8 8 8 9 9
23 24 25 26 26 26 26 25 25 23 23 22 21 20 19 18 17 17 16 15 14 14 15 15 16 16 15 15 15 14 14 12 11 10 10 10 10 9 9 9 9 9 11 13 15 16 18 21 21 20 19 18 17 16 14 11 9 7 6 6 7 8 8 8 8 8 8 9 10 11 11 10 8 6 5 6 6 6 7 7 7 7 7 7 8
25 25 26 27 27 26 25 24 24 23 23 22 21 21 19 19 18 17 16 16 15 14 14 14 15 15 15 15 15 14 14 12 10 9 9 9 9 8 8 7 7 7 8 10 12 14 15 18 19 19 19 19 19 18 15 13 11 8 7 7 7 7 8 8 8 7 7 7 8 10 10 9 8 6 4 4 5 5 6 6 6 7 6 6 6
28 28 27 28 27 26 25 23 24 23 23 23 22 21 20 20 19 17 16 16 14 13 13 13 14 14 15 15 14 14 14 13 11 10 9 8 8 7 7 6 6 5 5 7 8 10 12 14 16 17 19 20 21 19 17 15 13 10 8 7 8 7 7 7 7 6 6 6 8 9 9 8 7 5 3 3 4 4 5 5 5 6 5 5 5
30 29 28 28 27 26 25 24 25 24 23 23 23 22 21 20 19 18 16 15 13 12 12 13 14 14 14 13 14 14 14 13 12 11 9 8 7 7 6 5 5 5 5 6 6 7 9 11 13 14 17 20 21 20 18 16 14 12 9 8 8 7 6 5 6 5 5 6 8 8 8 8 7 6 4 3 4 4 5 5 5 5 4 4 4
30 30 29 29 27 27 26 25 25 25 23 23 23 22 22 21 19 17 15 14 12 12 13 13 14 13 13 13 13 14 13 12 11 10 8 8 7 6 6 6 6 5 5 5 5 6 7 9 10 12 14 17 20 20 18 16 14 13 10 9 8 7 6 5 5 5 5 6 7 8 8 7 7 6 4 3 3 4 4 4 4 4 4 3 3
31 30 29 29 28 28 26 24 24 24 24 23 23 22 22 21 19 17 15 14 13 12 13 13 13 13 13 12 12 12 12 11 10 9 9 9 7 6 6 6 6 6 6 5 5 5 6 8 9 10 12 14 18 18 17 15 14 13 11 9 8 7 5 5 5 5 5 5 6 7 7 7 7 5 4 3 2 2 3 4 4 4 3 3 3
31 29 29 29 28 27 26 24 23 23 23 23 23 22 22 20 18 16 14 13 12 12 13 13 13 13 13 12 11 11 11 11 10 10 10 10 8 7 7 6 6 6 6 5 5 5 6 7 8 9 10 11 14 15 15 14 13 13 11 9 8 7 5 4 4 4 4 4 5 6 6 6 6 5 4 2 2 1 2 4 4 4 3 2 2
30 30 29 28 28 27 26 24 23 22 23 23 23 22 21 19 18 16 14 13 13 12 13 13 12 12 12 11 11 10 11 11 11 11 11 10 9 8 7 7 6 6 5 5 5 5 5 6 8 8 9 10 11 11 12 12 13 13 11 9 7 5 3 2 2 3 3 3 4 5 5 5 4 4 4 2 3 3 2 3 4 4 3 2 2
30 31 30 29 28 26 26 24 23 23 23 23 22 21 20 18 17 15 14 13 13 13 13 13 11 11 11 11 11 11 12 12 11 11 11 9 8 8 7 7 7 6 6 5 5 5 5 6 7 8 8 9 9 8 8 9 11 11 10 9 6 4 3 1 1 2 2 2 3 4 4 3 3 3 3 3 2 3 2 2 3 3 2 2 1
31 31 30 29 28 27 26 24 24 24 23 22 21 20 18 16 16 14 13 13 13 13 14 12 11 11 10 11 12 11 12 11 10 10 9 8 7 7 7 6 6 6 6 6 5 5 6 7 7 8 8 8 8 8 8 8 8 9 9 8 7 5 4 2 2 2 2 1 1 2 2 2 2 2 3 3 1 2 2 2 2 2 1 1 2
33 31 31 29 27 27 26 25 25 24 22 20 19 18 16 15 14 14 13 13 13 13 14 12 12 12 10 11 11 11 10 10 10 9 8 7 6 6 6 7 6 6 6 6 5 4 5 7 8 8 8 9 8 7 8 7 6 5 6 6 5 5 4 5 5 5 5 4 2 1 1 2 2 3 2 1 1 2 3 3 3 3 3 3 3
34 31 30 29 27 27 26 26 26 23 21 19 18 17 16 15 13 14 14 13 13 13 13 12 12 12 10 10 10 10 9 8 8 8 7 6 6 6 6 7 6 6 5 5 5 4 4 5 6 8 8 9 9 8 7 6 5 5 4 3 5 6 6 6 7 7 7 6 5 3 2 1 2 2 2 2 3 4 5 6 4 4 5 7 8
33 32 30 29 27 26 27 27 25 22 20 18 17 16 16 15 14 15 15 13 14 14 13 13 12 11 10 9 9 9 7 7 7 7 7 7 7 7 6 6 5 5 4 4 5 4 4 5 5 6 7 9 9 8 7 6 5 5 4 2 3 5 6 7 8 8 7 6 6 5 3 2 2 2 3 4 5 5 6 8 5 5 8 11 12
28 28 27 26 25 25 26 26 23 21 20 18 17 16 15 16 15 15 15 14 15 15 14 13 12 11 10 9 8 8 7 6 6 6 8 7 7 6 6 6 5 4 4 4 5 5 5 5 5 6 7 8 8 7 6 5 5 4 3 2 2 4 6 8 8 8 8 7 7 6 4 3 3 3 4 5 5 6 7 8 7 7 8 10 10
18 19 20 20 20 22 24 24 22 21 20 18 16 16 15 16 17 16 16 16 15 15 14 13 12 11 10 9 9 8 6 6 5 6 7 7 6 6 6 7 6 5 4 4 5 6 6 6 6 7 7 7 7 6 5 5 4 4 4 2 2 4 6 7 7 8 9 8 7 7 6 5 4 4 4 5 6 7 8 8 9 8 8 9 8
13 15 17 19 17 18 21 22 22 21 20 18 17 16 16 17 17 16 17 17 16 16 14 13 12 11 9 9 9 7 6 6 6 6 6 6 7 6 6 7 7 6 5 5 5 6 7 7 7 7 7 6 6 5 5 4 4 4 4 3 2 4 5 4 6 9 9 9 8 7 7 6 6 5 5 6 6 7 8 8 8 8 9 9 6
11 14 15 17 18 17 20 22 21 21 20 18 18 17 17 18 17 17 18 17 16 15 13 13 12 11 9 9 8 7 7 7 7 7 6 7 7 6 7 6 6 6 6 6 5 6 8 8 7 6 7 7 5 5 5 4 4 4 4 3 3 4 4 3 6 8 9 9 9 8 7 7 7 7 6 6 6 7 7 7 7 7 8 7 4
8 16 16 15 19 20 22 23 22 22 21 19 19 19 19 19 18 18 18 17 16 14 13 13 13 11 10 9 8 8 7 7 6 6 6 6 7 6 7 7 6 6 6 6 6 7 9 8 8 7 7 7 6 5 5 5 4 4 4 5 5 4 3 3 6 7 7 9 10 10 9 7 7 7 7 7 7 6 5 5 5 5 5 5 3
3 15 21 20 22 25 25 24 24 24 22 21 21 20 20 20 20 19 19 17 15 14 14 13 12 11 9 9 8 7 7 6 6 6 5 4 4 4 6 7 7 7 7 7 6 8 9 8 8 8 7 8 8 7 5 5 5 5 6 6 5 5 4 3 5 6 6 8 10 10 9 8 7 7 7 6 6 6 5 3 3 3 3 3 3
12 16 27 28 28 28 27 26 26 25 24 23 23 22 22 22 21 20 18 17 16 15 15 13 12 10 9 9 7 6 6 6 5 5 4 4 4 4 6 8 8 8 8 8 8 9 10 10 9 9 8 8 8 8 7 6 5 6 6 7 6 5 6 4 6 6 5 7 10 10 9 8 7 7 6 6 6 6 4 3 2 2 2 1 1
21 24 31 30 28 27 25 26 27 26 25 24 24 23 22 22 21 19 18 17 15 15 14 13 12 10 9 8 7 6 6 7 6 5 5 4 5 6 7 7 8 8 9 9 9 10 10 10 10 10 9 8 7 7 8 7 6 6 6 7 7 6 7 6 6 5 6 7 9 9 8 8 8 8 6 6 6 5 4 2 1 1 1 1 2
22 25 30 29 26 25 24 25 27 27 26 25 23 22 21 20 18 17 16 16 14 14 13 13 12 11 9 8 8 8 8 8 7 6 6 6 6 7 7 7 8 8 8 9 10 10 11 11 10 10 10 9 9 8 8 7 7 6 6 7 8 8 8 7 5 5 6 5 6 6 6 7 8 7 7 6 6 5 3 1 1 1 1 2 3
22 24 29 28 26 25 24 25 26 27 26 25 23 22 21 19 16 15 15 15 14 14 14 14 13 11 11 10 10 9 9 8 7 7 7 6 6 7 7 8 8 8 8 9 9 10 10 11 10 10 10 10 10 10 9 8 8 8 8 7 8 10 9 8 8 7 5 4 3 4 5 6 7 6 7 7 5 4 2 1 2 2 2 3 5
25 26 29 28 26 25 23 24 26 26 26 25 23 22 21 20 18 17 17 16 16 16 15 14 14 13 13 12 11 10 9 8 7 6 6 6 6 6 7 8 8 8 8 8 9 10 10 10 10 10 10 10 9 9 10 10 9 9 9 6 6 8 10 11 10 7 4 3 3 3 4 5 6 6 6 5 4 3 3 4 5 4 3 4 6
29 28 28 28 27 25 23 24 26 26 25 24 23 22 21 21 20 19 18 18 18 17 15 14 14 14 13 11 10 9 8 7 6 6 6 6 5 5 7 8 8 8 8 9 10 10 10 10 10 10 10 9 9 9 9 10 11 11 10 7 4 5 9 12 11 8 6 5 4 5 6 6 6 6 6 6 6 6 7 6 6 4 4 6 7
29 28 27 27 27 26 24 25 26 25 24 23 22 22 22 21 19 17 17 18 18 16 15 14 13 13 12 11 10 9 8 7 6 5 5 5 5 4 5 7 8 8 9 9 9 9 9 10 10 10 9 10 9 9 8 9 11 11 11 10 6 3 4 7 9 10 11 10 8 8 9 9 10 10 10 9 8 7 7 6 6 6 6 7 8
30 28 27 28 28 26 23 24 25 23 23 23 22 22 22 20 19 17 17 16 15 15 15 14 12 11 11 11 10 9 9 8 6 5 4 5 5 4 4 6 7 7 7 7 8 9 9 10 10 10 10 10 10 9 9 9 10 10 11 12 10 6 3 3 5 7 10 15 14 11 12 13 13 13 11 10 9 8 7 7 7 7 7 7 8
29 28 30 30 28 26 23 24 24 22 23 23 22 22 20 19 19 18 17 15 14 14 15 13 12 11 11 10 9 8 8 7 5 4 3 4 5 5 4 5 6 6 6 6 6 7 8 9 10 10 10 11 11 10 10 10 9 9 10 11 11 9 5 4 5 7 8 13 15 15 17 17 15 13 12 11 11 10 9 9 8 8 8 7 8
27 26 29 30 28 25 23 24 24 22 23 23 22 22 19 18 19 18 17 16 16 15 13 12 11 11 10 9 8 7 6 4 4 4 4 4 5 6 5 5 5 5 4 4 4 4 5 6 8 9 9 10 11 10 10 10 10 9 10 11 11 11 7 6 8 9 9 10 13 17 19 18 16 15 13 12 11 11 10 9 8 8 7 7 6
26 23 26 28 27 24 23 24 24 22 23 23 23 21 19 18 18 17 16 16 15 14 13 12 11 11 10 9 7 6 5 4 3 4 4 4 4 6 6 6 5 4 4 4 3 3 3 5 6 7 7 8 9 9 10 10 10 11 11 11 10 10 8 6 7 10 12 11 14 20 20 17 16 15 14 12 10 9 8 7 7 6 5 5 5
Wind_Direction
169 173 169 166 170 170 171 170 169 167 162 157 150 146 144 142 140 140 140 145 150 154 156 157 157 156 154 153 151 149 144 142 140 136 130 126 123 122 123 124 124 118 113 111 107 106 107 108 106 104 101 98 96 92 92 89 87 85 78 71 69 70 71 73 78 88 99 97 91 91 94 97 100 103 109 113 111 106 100 97 96 95 96 97 99
165 170 168 167 171 170 172 170 170 167 163 158 152 149 146 144 140 138 137 139 146 150 152 155 156 156 156 156 155 152 149 147 145 139 134 133 133 129 128 128 123 115 111 113 112 110 110 109 107 104 100 98 97 95 94 90 87 83 77 71 67 67 66 68 70 80 102 105 98 95 95 98 102 104 109 113 112 107 100 97 96 93 93 96 98
163 168 167 168 171 171 172 171 170 167 164 160 155 152 148 144 139 138 136 137 145 150 152 154 156 157 159 158 157 154 152 151 146 142 138 138 139 136 135 133 122 115 115 117 116 113 111 110 108 105 105 104 99 97 98 94 89 84 78 71 66 65 64 64 66 73 92 106 110 107 103 103 104 107 111 114 114 111 103 98 96 92 94 97 96
165 166 166 169 171 171 173 172 170 168 166 162 159 154 150 146 141 140 138 137 142 151 155 156 158 159 160 159 156 154 152 152 148 143 142 143 143 141 139 136 123 119 120 121 119 116 114 112 112 110 110 106 100 98 99 96 90 85 79 72 66 63 63 62 62 67 74 92 113 116 113 112 109 111 113 114 117 114 107 101 95 89 88 92 93
167 166 167 169 170 171 173 173 171 169 167 165 162 156 153 149 144 143 142 140 139 147 156 159 161 160 160 155 151 150 148 146 144 139 142 146 146 144 142 135 124 121 124 126 124 120 117 116 116 115 112 107 105 101 97 94 85 81 79 73 67 63 62 61 59 61 63 75 106 120 120 120 117 117 117 120 126 121 116 109 102 97 92 92 92
169 168 169 170 170 171 173 174 172 169 168 168 165 159 156 152 149 146 144 143 140 142 151 161 162 160 157 151 147 145 143 141 141 138 141 147 146 145 142 134 127 124 126 130 127 122 120 121 121 118 115 111 108 102 96 90 82 78 78 75 70 66 63 61 59 59 59 64 87 116 124 125 125 124 123 127 135 132 127 121 118 115 109 105 99
172 170 171 171 171 171 173 175 172 170 169 169 167 163 159 157 154 149 146 144 143 141 145 158 159 156 154 150 148 146 145 144 146 146 148 154 145 140 138 132 130 128 129 131 127 125 124 125 124 121 120 115 108 101 92 87 82 80 79 77 73 68 65 62 60 60 60 61 69 94 115 121 126 127 122 124 136 142 139 136 136 130 120 116 108
174 173 172 171 172 172 174 175 172 171 170 170 169 167 163 160 157 151 147 145 146 143 144 153 156 153 148 146 145 146 149 149 152 153 159 161 148 139 136 133 133 131 132 132 129 128 127 125 126 124 121 114 106 98 91 88 84 82 80 77 74 69 65 63 61 61 61 61 61 66 91 108 118 120 115 119 135 147 147 147 149 142 133 128 119
176 174 173 172 172 172 174 175 173 172 172 172 171 169 166 162 159 155 148 148 150 146 147 152 156 153 145 141 141 145 148 150 154 159 165 161 151 147 137 130 132 133 134 135 133 132 131 128 128 125 119 112 105 95 91 91 87 84 81 78 75 69 64 63 62 62 62 62 61 58 71 95 107 109 108 115 130 145 149 151 151 150 147 144 140
176 173 172 172 173 173 174 175 174 174 174 172 172 171 168 165 162 160 154 151 150 148 150 154 157 152 145 144 144 146 146 148 153 161 167 157 152 152 134 123 129 136 137 138 136 136 135 132 129 125 120 114 107 96 94 94 91 87 82 79 76 70 65 63 61 62 63 63 62 60 64 77 87 94 98 103 118 134 144 148 150 152 153 148 144
175 172 172 172 173 173 174 175 177 176 175 173 173 171 170 167 165 165 160 154 150 149 152 153 154 149 146 148 148 149 148 147 150 157 159 150 149 148 132 125 130 139 141 140 138 138 137 133 129 125 122 115 108 98 97 96 93 89 84 80 76 73 69 63 60 60 62 62 61 60 63 68 73 80 87 93 102 118 131 137 141 145 145 140 128
173 171 171 171 172 173 175 177 178 177 176 175 175 172 170 168 168 168 162 154 148 147 150 151 151 149 149 150 149 148 146 144 145 148 145 140 142 143 136 133 138 144 146 144 140 139 136 134 130 127 124 119 111 102 99 98 95 91 86 80 76 74 73 66 60 58 58 59 59 58 60 66 74 78 81 86 92 101 113 120 124 125 124 121 110
171 170 170 171 172 174 177 178 178 179 179 178 177 173 171 169 170 168 160 153 147 145 147 148 149 149 151 151 149 148 146 144 143 142 136 135 137 141 138 135 142 149 150 148 144 141 139 137 135 134 132 128 120 110 103 102 97 91 86 81 77 75 74 69 62 59 56 56 58 60 59 63 73 80 83 85 87 91 98 103 107 108 107 104 97
171 170 171 172 173 176 178 179 180 181 182 180 178 174 172 170 169 165 155 150 146 145 144 144 145 146 148 149 149 149 147 144 140 134 128 129 130 132 132 134 144 151 154 153 149 147 145 143 142 142 142 139 134 124 110 106 101 92 88 83 78 77 75 70 64 60 57 56 58 63 63 63 69 76 82 84 85 86 88 91 94 97 96 94 90
172 172 172 174 174 176 178 180 182 183 183 182 179 176 174 171 167 160 153 151 149 147 144 143 143 143 145 148 149 146 143 138 130 125 121 122 122 124 125 129 142 152 156 157 155 153 151 149 149 150 151 151 147 141 129 113 105 97 91 86 81 79 76 69 65 60 57 57 59 64 63 62 65 70 76 81 84 86 87 89 90 92 92 91 89
174 175 174 175 175 175 177 181 184 184 184 182 179 177 174 169 164 159 152 153 152 149 145 146 147 145 147 147 144 140 135 129 124 121 119 120 120 123 123 123 134 148 157 160 159 158 156 155 156 157 159 161 158 155 150 134 112 103 97 90 85 81 77 69 64 61 59 58 60 67 69 65 65 69 73 79 84 87 90 92 92 92 92 92 92
177 177 176 175 174 175 179 181 183 184 183 182 179 175 171 167 162 159 153 152 151 150 148 148 149 147 147 145 140 135 130 126 123 120 118 121 122 123 124 122 128 142 155 161 163 162 161 161 161 163 166 168 169 166 165 167 129 111 105 98 91 84 78 71 65 63 62 61 60 66 75 73 70 72 75 79 83 85 88 91 92 92 92 92 92
178 178 177 176 175 176 179 179 180 181 181 179 176 172 169 166 163 159 154 152 151 152 151 150 150 149 148 146 141 135 130 127 123 119 118 121 124 124 125 125 127 135 149 160 166 167 166 166 167 169 171 174 179 179 178 185 162 120 112 107 98 90 82 74 69 67 65 64 62 63 75 78 73 73 76 78 80 84 86 89 91 92 92 92 91
178 177 178 178 176 176 177 176 177 178 178 177 174 171 169 168 166 161 155 151 150 151 154 154 153 153 153 149 143 138 133 132 126 122 123 125 128 129 131 134 133 134 142 155 165 170 171 171 172 174 176 180 187 189 188 192 183 136 120 116 108 99 90 81 73 71 70 68 66 64 70 79 79 74 73 77 80 83 85 88 92 93 94 93 91
177 177 177 178 176 176 175 174 176 176 177 176 173 170 169 170 166 160 156 153 151 152 156 158 158 159 159 152 146 144 141 138 131 127 130 131 131 131 139 139 134 134 137 146 159 170 175 176 178 179 181 184 192 194 193 197 192 159 134 126 118 110 99 90 80 74 74 72 71 68 68 74 82 79 75 77 80 82 83 88 92 95 96 96 94
174 176 176 176 175 175 174 175 176 175 176 175 172 170 168 169 164 160 158 157 155 155 159 160 162 164 162 155 149 148 145 140 134 135 135 133 133 136 143 137 130 131 134 141 151 166 176 181 183 184 185 187 195 200 197 199 197 173 152 138 126 118 107 97 85 75 74 73 71 70 68 69 77 82 80 79 81 83 85 88 89 91 94 96 97
173 174 174 176 176 176 175 177 178 174 175 173 172 171 169 168 164 163 161 160 161 162 164 163 164 166 164 156 153 151 146 142 139 142 140 137 139 140 139 132 127 126 131 138 146 158 173 182 187 189 190 193 199 203 200 200 201 181 161 150 137 124 112 101 89 79 75 72 68 68 67 65 70 80 85 89 89 89 86 84 84 84 86 90 95
176 174 174 177 176 176 177 179 178 175 174 174 174 173 170 168 166 166 165 166 168 170 170 167 165 165 163 157 155 153 147 147 146 144 145 144 143 140 136 129 125 123 129 136 141 152 165 179 188 192 195 198 202 205 202 202 204 188 166 156 145 131 116 102 95 86 77 68 63 63 62 59 59 70 89 103 103 100 91 84 84 82 83 85 90
181 178 177 178 177 177 177 179 179 176 175 176 177 175 171 170 170 170 171 173 172 171 172 170 167 165 163 158 155 153 150 153 152 148 149 149 146 141 136 129 131 135 139 140 143 149 157 170 184 192 198 202 204 206 205 203 205 195 174 163 153 142 126 110 101 93 82 65 58 58 55 51 47 49 78 124 133 124 109 98 93 89 89 87 86
182 181 181 180 178 179 178 178 179 178 178 178 177 175 174 172 174 176 176 176 174 172 172 171 170 167 164 159 156 155 155 157 154 151 150 147 145 140 138 144 151 157 157 151 149 150 154 164 178 189 198 204 206 208 207 204 205 200 184 171 162 154 142 126 111 96 80 64 62 60 52 48 42 39 62 114 147 150 135 121 110 105 102 96 92
183 185 185 181 179 180 180 180 180 179 179 179 177 176 176 175 178 179 177 177 178 175 172 171 170 167 163 160 159 156 154 154 152 150 148 145 143 143 152 161 161 164 165 154 152 155 157 164 174 184 193 203 206 208 208 203 201 201 190 176 169 161 150 134 119 98 73 62 67 66 56 46 40 49 63 76 131 162 160 145 135 126 120 112 103
185 189 187 182 182 182 184 184 181 180 181 180 179 178 177 178 180 179 179 179 179 178 173 169 168 164 162 159 157 155 153 153 153 150 147 144 144 153 163 165 161 159 160 154 157 160 159 164 172 182 187 197 202 205 207 201 196 199 195 182 173 164 150 135 122 102 79 70 73 67 58 46 38 53 67 52 75 156 176 167 159 150 143 130 109
188 191 189 186 186 186 187 186 183 182 182 181 180 180 178 179 181 180 180 181 181 181 175 170 167 164 161 156 154 157 159 158 157 153 148 148 152 160 163 161 158 153 155 154 157 163 161 163 168 177 183 191 199 203 206 200 190 194 199 193 179 167 150 135 124 107 93 84 79 70 61 51 39 45 69 66 20 36 170 183 180 174 166 148 111
192 193 190 188 190 189 188 187 185 185 183 182 181 181 180 180 182 182 182 183 185 183 177 172 168 164 161 156 154 160 167 166 162 157 154 157 158 159 160 161 161 158 165 164 163 168 166 166 166 171 179 186 194 200 206 204 192 192 201 199 186 175 161 138 127 111 98 91 82 74 70 59 50 53 72 76 356 18 98 173 183 187 182 161 117
197 196 192 190 191 190 189 188 186 188 186 183 182 181 182 182 182 185 186 186 188 187 180 174 166 162 161 160 157 158 166 167 163 160 158 159 158 159 163 168 172 175 178 178 178 178 177 179 174 172 179 184 188 193 199 204 197 194 202 208 209 208 203 185 154 133 112 92 69 69 78 69 60 60 80 100 43 38 72 146 166 184 180 160 134
200 198 195 192 193 190 189 188 187 190 187 183 183 183 183 184 185 188 189 189 192 190 183 175 168 163 162 163 161 158 162 164 164 161 155 153 154 157 163 168 174 180 183 184 184 185 184 187 188 184 185 186 186 185 185 191 192 191 199 211 224 229 226 215 196 176 155 129 75 59 78 88 74 67 90 127 121 68 74 84 116 133 118 134 139
202 202 197 194 194 193 190 189 190 190 187 184 185 185 184 185 187 189 189 192 193 190 184 177 172 169 163 161 161 161 160 161 163 163 158 151 150 154 162 169 173 178 182 182 179 181 182 186 194 195 197 196 192 185 184 181 176 175 182 200 220 225 221 210 203 194 180 166 147 117 109 103 81 84 98 142 146 100 102 97 85 77 66 74 98
202 203 200 197 195 194 192 191 192 190 186 186 187 186 186 186 187 189 190 193 190 186 183 178 178 178 171 164 162 163 158 158 165 169 167 159 153 157 163 174 182 185 189 190 185 183 183 189 197 201 206 202 195 189 187 182 168 157 160 184 208 216 223 220 213 201 185 169 160 163 150 106 72 91 101 103 101 94 111 118 93 60 70 83 94
202 204 201 198 196 195 194 194 193 189 187 187 188 188 187 187 188 189 190 189 185 182 182 183 185 185 183 177 169 169 164 162 172 176 175 171 170 169 171 179 187 193 203 208 204 202 197 198 199 206 209 196 190 189 189 187 176 163 159 183 217 227 226 212 202 192 179 167 161 165 157 133 114 98 96 102 99 90 111 128 115 84 88 92 96
201 203 201 198 196 195 196 197 193 190 189 188 190 190 188 188 188 188 188 185 181 180 184 189 191 190 189 187 181 179 178 176 182 188 186 183 182 181 181 186 193 200 208 209 210 213 205 196 192 198 203 193 188 189 191 193 194 192 188 213 247 226 206 198 195 187 179 175 166 165 163 148 141 109 99 108 101 91 107 129 125 110 104 97 94
200 200 200 200 199 197 199 201 197 193 193 191 190 190 188 187 186 186 185 182 180 182 187 192 193 193 194 192 187 186 191 194 197 202 200 198 200 201 198 196 201 210 210 205 209 209 201 193 188 189 193 196 196 196 199 199 197 198 195 215 232 193 188 197 203 194 184 180 170 168 170 156 150 135 115 116 109 99 106 124 128 124 119 106 98
221 216 210 205 201 203 206 206 202 198 195 192 190 189 188 185 184 184 184 184 184 187 191 194 195 193 194 194 192 194 199 197 204 212 210 213 219 217 217 209 205 215 215 209 210 202 193 189 188 189 185 185 196 201 204 201 188 183 191 200 189 178 183 200 209 200 187 178 174 174 172 159 154 151 134 123 114 105 106 116 120 120 117 108 105
234 234 228 214 206 210 212 210 205 199 196 192 189 187 185 184 185 185 186 187 188 191 193 195 197 195 193 193 196 199 197 200 213 220 214 222 229 223 227 223 208 217 216 208 214 200 190 186 184 188 183 172 177 189 192 197 188 181 187 176 170 175 168 187 209 200 187 181 181 178 169 159 155 155 149 133 118 110 107 110 108 106 109 105 102
242 237 232 220 215 215 215 210 202 196 193 190 186 184 184 185 186 186 188 190 188 189 191 193 197 196 196 196 200 202 203 209 217 219 217 228 239 232 225 214 199 209 213 211 216 201 190 188 183 181 182 174 170 173 177 189 183 172 172 162 167 168 149 181 201 190 183 182 179 173 164 159 157 158 159 146 133 126 118 112 105 95 95 97 96
201 237 220 207 210 210 208 203 194 190 188 186 185 183 185 186 187 186 186 186 184 185 187 190 194 196 198 200 204 205 208 213 212 218 228 237 244 228 208 200 196 202 211 213 209 198 191 188 184 179 181 184 177 168 169 184 182 172 168 163 168 158 139 182 195 176 174 174 170 167 164 163 162 165 169 160 148 144 140 126 111 99 90 91 90
172 213 209 202 203 201 198 193 186 185 186 185 184 184 186 186 186 185 181 179 180 183 185 186 190 193 196 198 198 197 199 203 204 215 228 230 219 196 188 195 199 200 206 207 199 197 192 185 183 178 178 185 184 174 169 178 189 185 174 164 174 163 143 179 196 172 170 178 176 171 169 171 173 175 177 169 161 159 156 144 135 136 109 77 29
195 203 206 207 204 198 195 188 184 184 185 186 185 185 187 186 184 182 179 178 180 182 182 183 187 187 187 186 184 186 190 193 194 200 204 204 189 175 177 186 195 200 202 200 195 198 196 190 186 182 178 176 181 185 179 178 184 193 184 164 167 156 146 182 197 167 167 181 182 176 174 179 182 183 183 177 176 174 169 165 177 169 123 48 25
208 203 205 208 205 200 195 188 185 184 183 186 186 185 187 185 183 180 179 181 180 178 178 180 179 177 178 179 181 184 185 186 187 188 189 186 178 171 174 180 188 197 200 197 195 197 198 195 189 187 186 179 180 191 194 191 182 182 185 171 167 156 149 178 188 164 163 165 171 171 171 187 193 192 191 189 189 191 189 208 250 152 117 73 50
217 208 204 206 205 202 195 188 187 184 183 185 184 186 187 184 181 179 179 180 177 175 175 174 172 172 177 179 179 178 175 176 177 176 176 177 180 180 180 183 187 192 196 196 194 195 195 195 193 192 195 192 190 194 198 202 195 187 190 181 175 166 160 175 176 165 154 121 127 144 149 186 203 198 196 196 195 201 202 173 151 133 104 67 52
222 215 206 204 206 204 195 188 189 186 183 183 183 186 185 181 179 178 180 177 174 175 174 172 170 171 175 175 173 170 167 169 169 170 172 174 181 186 185 186 191 194 196 193 189 190 192 195 196 192 194 199 201 202 201 202 199 196 199 194 180 177 180 185 177 160 150 121 97 110 134 173 190 186 185 186 177 162 140 125 129 124 90 66 64
224 220 207 200 205 207 197 189 190 187 182 182 182 183 181 180 181 182 181 177 175 176 174 171 169 165 166 168 167 164 164 169 172 174 173 171 174 181 185 185 189 192 194 194 190 190 195 198 198 193 193 197 202 206 202 199 198 196 201 206 198 188 191 190 177 152 139 124 106 121 136 148 150 142 140 139 137 135 130 123 122 113 90 80 79
221 219 208 201 205 208 199 190 189 186 182 180 179 180 180 180 184 186 184 181 178 173 168 165 162 159 159 162 166 165 166 168 172 178 178 176 174 176 183 184 187 191 196 201 198 195 197 198 198 197 198 202 205 205 197 195 200 198 198 203 204 192 191 196 186 163 143 130 124 132 135 134 129 121 123 128 130 130 129 125 118 108 97 92 89
214 214 209 204 206 208 201 191 187 184 181 180 179 181 182 182 183 184 182 180 177 169 162 159 157 158 159 163 169 168 165 161 160 174 189 193 188 183 186 185 189 195 199 205 205 202 200 199 200 202 205 206 206 204 199 196 203 207 203 204 210 216 225 221 208 195 160 140 135 137 135 135 134 127 122 121 118 118 123 125 118 110 106 101 96
210 209 207 205 207 207 201 190 186 184 182 182 181 182 183 184 183 181 178 176 171 167 162 158 157 158 161 167 170 165 157 147 138 141 163 187 192 193 193 188 189 193 198 207 208 206 205 204 204 208 211 207 203 203 204 200 201 214 217 214 218 222 224 206 199 214 187 154 146 146 142 140 138 127 119 114 111 111 114 118 118 114 111 106 100
208 206 206 206 207 207 201 192 187 185 184 184 184 183 183 185 184 180 178 174 169 168 164 159 158 159 162 164 161 157 145 126 109 107 124 163 191 200 200 195 193 192 194 200 203 202 204 208 209 211 214 211 209 210 210 204 198 205 218 222 222 218 214 202 196 200 197 178 162 154 147 145 140 127 119 116 113 114 114 115 116 112 108 102 99
210 206 206 208 209 208 202 194 190 187 186 187 186 185 183 184 186 183 181 176 171 170 167 163 161 158 160 159 155 152 135 109 92 97 116 143 180 201 207 205 201 196 192 193 199 207 208 209 208 209 213 217 220 220 218 213 206 204 209 217 222 220 218 220 214 201 196 191 170 155 151 149 142 132 125 119 113 118 121 123 123 115 108 98 94